| time (UTC) | temp C | wind direction | speed KPH | gust KPH | rain 1hr cm | rain 24hr cm | rain mn cm | humidity % | barometer mb |
| 20260506145016 | 5 | 189 | 12.9 | 22.5 | 0.13 | 0.38 | 0.20 | 92 | 1009.3 |
| 20260506144538 | 5 | 175 | 16.1 | 22.5 | 0.13 | 0.36 | 0.18 | 91 | 1009.4 |
| 20260506144017 | 5 | 206 | 12.9 | 24.1 | 0.10 | 0.33 | 0.15 | 91 | 1009.2 |
| 20260506143519 | 5 | 225 | 14.5 | 25.7 | 0.08 | 0.30 | 0.13 | 90 | 1009.2 |
| 20260506143033 | 6 | 148 | 17.7 | 25.7 | 0.10 | 0.30 | 0.13 | 90 | 1009.2 |
| 20260506142519 | 6 | 159 | 14.5 | 22.5 | 0.08 | 0.28 | 0.10 | 90 | 1009.3 |
| 20260506142016 | 6 | 178 | 14.5 | 20.9 | 0.08 | 0.28 | 0.10 | 91 | 1009.3 |
| 20260506141532 | 6 | 177 | 14.5 | 20.9 | 0.10 | 0.28 | 0.10 | 91 | 1009.4 |
| 20260506141020 | 6 | 172 | 12.9 | 22.5 | 0.10 | 0.28 | 0.10 | 91 | 1009.4 |
| 20260506140517 | 6 | 211 | 14.5 | 22.5 | 0.08 | 0.25 | 0.08 | 91 | 1009.4 |
| 20260506140033 | 6 | 205 | 11.3 | 22.5 | 0.08 | 0.25 | 0.08 | 92 | 1009.3 |
| 20260506135515 | 6 | 187 | 14.5 | 25.7 | 0.08 | 0.25 | 0.08 | 91 | 1009.2 |
| 20260506135016 | 6 | 156 | 14.5 | 25.7 | 0.08 | 0.25 | 0.08 | 91 | 1009.3 |
| 20260506134531 | 6 | 163 | 17.7 | 27.4 | 0.05 | 0.23 | 0.05 | 91 | 1009.0 |
| 20260506134017 | 6 | 171 | 19.3 | 27.4 | 0.05 | 0.23 | 0.05 | 90 | 1008.9 |
| 20260506133520 | 6 | 203 | 19.3 | 27.4 | 0.03 | 0.20 | 0.03 | 89 | 1008.8 |
| 20260506133031 | 6 | 180 | 17.7 | 25.7 | 0.03 | 0.20 | 0.03 | 89 | 1008.8 |
| 20260506132522 | 6 | 196 | 16.1 | 24.1 | 0.03 | 0.20 | 0.03 | 89 | 1009.0 |
| 20260506132016 | 6 | 169 | 14.5 | 19.3 | 0.03 | 0.20 | 0.03 | 89 | 1008.8 |
| 20260506131541 | 6 | 169 | 11.3 | 19.3 | 0.00 | 0.18 | 0.00 | 89 | 1008.9 |
| 20260506131017 | 6 | 180 | 12.9 | 19.3 | 0.00 | 0.18 | 0.00 | 89 | 1008.9 |
| 20260506130519 | 6 | 198 | 12.9 | 19.3 | 0.00 | 0.18 | 0.00 | 89 | 1008.8 |
| 20260506130037 | 6 | 211 | 12.9 | 19.3 | 0.00 | 0.18 | 0.00 | 88 | 1008.8 |
| 20260506125516 | 6 | 214 | 11.3 | 20.9 | 0.00 | 0.18 | 0.00 | 89 | 1009.0 |
| 20260506125019 | 6 | 201 | 14.5 | 25.7 | 0.00 | 0.18 | 0.00 | 88 | 1008.9 |
| 20260506124530 | 6 | 210 | 12.9 | 25.7 | 0.00 | 0.18 | 0.00 | 89 | 1009.1 |
| 20260506124016 | 6 | 188 | 14.5 | 27.4 | 0.00 | 0.18 | 0.00 | 89 | 1009.1 |
| 20260506123516 | 6 | 167 | 16.1 | 27.4 | 0.00 | 0.18 | 0.00 | 89 | 1009.0 |
| 20260506123034 | 6 | 175 | 20.9 | 27.4 | 0.00 | 0.18 | 0.00 | 88 | 1008.8 |
| 20260506122517 | 6 | 173 | 19.3 | 27.4 | 0.00 | 0.18 | 0.00 | 88 | 1008.8 |
| 20260506122017 | 6 | 156 | 19.3 | 27.4 | 0.00 | 0.18 | 0.00 | 88 | 1008.6 |
| 20260506121533 | 6 | 182 | 17.7 | 25.7 | 0.00 | 0.18 | 0.00 | 88 | 1008.7 |
| 20260506121016 | 6 | 160 | 16.1 | 25.7 | 0.00 | 0.18 | 0.00 | 87 | 1008.6 |
| 20260506120517 | 6 | 156 | 17.7 | 24.1 | 0.00 | 0.18 | 0.00 | 86 | 1008.7 |
| 20260506120035 | 7 | 161 | 14.5 | 22.5 | 0.00 | 0.18 | 0.00 | 85 | 1008.8 |
| 20260506115519 | 7 | 185 | 14.5 | 17.7 | 0.00 | 0.18 | 0.00 | 84 | 1008.7 |
| 20260506115017 | 7 | 188 | 12.9 | 17.7 | 0.00 | 0.18 | 0.00 | 84 | 1008.7 |
| 20260506114535 | 7 | 209 | 12.9 | 19.3 | 0.00 | 0.18 | 0.00 | 82 | 1008.8 |
| 20260506114017 | 7 | 197 | 12.9 | 19.3 | 0.00 | 0.18 | 0.00 | 81 | 1008.9 |
| 20260506113517 | 7 | 197 | 14.5 | 17.7 | 0.00 | 0.18 | 0.00 | 81 | 1009.0 |
| 20260506113030 | 7 | 209 | 11.3 | 16.1 | 0.00 | 0.18 | 0.00 | 81 | 1008.9 |
| 20260506112516 | 7 | 207 | 11.3 | 16.1 | 0.00 | 0.18 | 0.00 | 80 | 1008.9 |
| 20260506112016 | 7 | 190 | 11.3 | 14.5 | 0.00 | 0.18 | 0.00 | 79 | 1008.9 |
| 20260506111534 | 7 | 171 | 9.7 | 14.5 | 0.00 | 0.18 | 0.00 | 78 | 1009.0 |
| 20260506111017 | 8 | 187 | 9.7 | 16.1 | 0.00 | 0.18 | 0.00 | 76 | 1008.9 |
| 20260506110517 | 8 | 209 | 11.3 | 16.1 | 0.00 | 0.18 | 0.00 | 76 | 1008.9 |
| 20260506110034 | 8 | 225 | 9.7 | 17.7 | 0.00 | 0.18 | 0.00 | 76 | 1008.9 |
| 20260506105516 | 8 | 218 | 11.3 | 17.7 | 0.00 | 0.18 | 0.00 | 76 | 1008.9 |
| 20260506105021 | 8 | 220 | 9.7 | 17.7 | 0.00 | 0.18 | 0.00 | 77 | 1008.8 |
| 20260506104531 | 8 | 219 | 11.3 | 17.7 | 0.00 | 0.18 | 0.00 | 77 | 1008.7 |
| 20260506104017 | 8 | 217 | 9.7 | 17.7 | 0.00 | 0.18 | 0.00 | 78 | 1008.6 |
| 20260506103517 | 8 | 211 | 9.7 | 16.1 | 0.00 | 0.18 | 0.00 | 78 | 1008.6 |
| 20260506103043 | 8 | 211 | 11.3 | 16.1 | 0.00 | 0.18 | 0.00 | 78 | 1008.6 |
| 20260506102517 | 8 | 217 | 11.3 | 16.1 | 0.00 | 0.18 | 0.00 | 79 | 1008.5 |
| 20260506102017 | 8 | 219 | 11.3 | 14.5 | 0.00 | 0.18 | 0.00 | 80 | 1008.4 |
| 20260506101548 | 8 | 208 | 8.0 | 14.5 | 0.00 | 0.18 | 0.00 | 81 | 1008.4 |
| 20260506101016 | 8 | 213 | 9.7 | 17.7 | 0.00 | 0.18 | 0.00 | 80 | 1008.2 |
| 20260506100516 | 8 | 207 | 11.3 | 19.3 | 0.00 | 0.18 | 0.00 | 78 | 1008.1 |
| 20260506100045 | 8 | 222 | 12.9 | 19.3 | 0.00 | 0.18 | 0.00 | 77 | 1008.1 |
| 20260506095517 | 8 | 219 | 9.7 | 16.1 | 0.00 | 0.18 | 0.00 | 77 | 1008.0 |
| 20260506095022 | 8 | 212 | 9.7 | 17.7 | 0.00 | 0.18 | 0.00 | 76 | 1007.8 |
| 20260506094534 | 8 | 205 | 9.7 | 17.7 | 0.00 | 0.18 | 0.00 | 74 | 1008.0 |
| 20260506094022 | 8 | 213 | 9.7 | 16.1 | 0.00 | 0.18 | 0.00 | 74 | 1008.0 |
| 20260506093517 | 8 | 192 | 11.3 | 22.5 | 0.00 | 0.18 | 0.00 | 77 | 1007.9 |
| 20260506093040 | 8 | 211 | 11.3 | 22.5 | 0.00 | 0.18 | 0.00 | 73 | 1007.8 |
| 20260506092517 | 8 | 216 | 12.9 | 20.9 | 0.00 | 0.18 | 0.00 | 73 | 1007.7 |
| 20260506092019 | 8 | 198 | 11.3 | 20.9 | 0.00 | 0.18 | 0.00 | 78 | 1007.8 |
| 20260506091535 | 8 | 221 | 11.3 | 16.1 | 0.00 | 0.18 | 0.00 | 84 | 1007.7 |
| 20260506091017 | 8 | 221 | 11.3 | 17.7 | 0.00 | 0.18 | 0.00 | 83 | 1007.7 |
| 20260506090517 | 8 | 223 | 8.0 | 17.7 | 0.00 | 0.18 | 0.00 | 84 | 1007.7 |
| 20260506090035 | 8 | 230 | 8.0 | 16.1 | 0.00 | 0.18 | 0.00 | 84 | 1007.9 |
| 20260506085517 | 8 | 235 | 8.0 | 12.9 | 0.00 | 0.18 | 0.00 | 84 | 1007.9 |
| 20260506085018 | 8 | 240 | 8.0 | 12.9 | 0.00 | 0.18 | 0.00 | 83 | 1007.8 |
| 20260506084554 | 8 | 240 | 9.7 | 12.9 | 0.00 | 0.18 | 0.00 | 82 | 1007.8 |
| 20260506084017 | 8 | 248 | 8.0 | 12.9 | 0.00 | 0.18 | 0.00 | 82 | 1007.9 |
| 20260506083517 | 8 | 235 | 8.0 | 12.9 | 0.00 | 0.18 | 0.00 | 81 | 1008.0 |
| 20260506083035 | 8 | 223 | 8.0 | 11.3 | 0.00 | 0.18 | 0.00 | 81 | 1008.1 |
| 20260506082521 | 8 | 241 | 6.4 | 11.3 | 0.00 | 0.18 | 0.00 | 81 | 1008.2 |
| 20260506082017 | 8 | 244 | 6.4 | 12.9 | 0.00 | 0.18 | 0.00 | 80 | 1008.2 |
| 20260506081541 | 9 | 237 | 8.0 | 12.9 | 0.00 | 0.18 | 0.00 | 79 | 1008.3 |
| 20260506081017 | 9 | 247 | 8.0 | 12.9 | 0.00 | 0.18 | 0.00 | 79 | 1008.2 |
| 20260506080517 | 9 | 252 | 8.0 | 14.5 | 0.00 | 0.18 | 0.00 | 79 | 1008.2 |
| 20260506073517 | 9 | 240 | 9.7 | 14.5 | 0.00 | 0.18 | 0.00 | 79 | 1007.6 |
| 20260506073043 | 9 | 246 | 9.7 | 14.5 | 0.00 | 0.18 | 0.00 | 79 | 1007.7 |
| 20260506072517 | 9 | 256 | 9.7 | 16.1 | 0.00 | 0.18 | 0.00 | 78 | 1007.7 |
| 20260506072017 | 9 | 245 | 9.7 | 20.9 | 0.00 | 0.18 | 0.00 | 78 | 1007.7 |
| 20260506071537 | 10 | 239 | 14.5 | 20.9 | 0.00 | 0.18 | 0.00 | 77 | 1007.7 |
| 20260506071019 | 10 | 251 | 11.3 | 17.7 | 0.00 | 0.18 | 0.00 | 77 | 1007.7 |
| 20260506070517 | 10 | 252 | 8.0 | 16.1 | 0.00 | 0.18 | 0.00 | 77 | 1007.8 |
| 20260506062517 | 10 | 247 | 12.9 | 17.7 | 0.00 | 0.18 | 0.00 | 71 | 1006.8 |
| 20260506062017 | 10 | 223 | 11.3 | 16.1 | 0.00 | 0.18 | 0.00 | 71 | 1006.8 |
| 20260506061531 | 10 | 237 | 9.7 | 16.1 | 0.00 | 0.18 | 0.00 | 70 | 1006.9 |
| 20260506061017 | 10 | 232 | 11.3 | 16.1 | 0.00 | 0.18 | 0.00 | 69 | 1007.0 |
| 20260506060518 | 10 | 240 | 9.7 | 14.5 | 0.00 | 0.18 | 0.00 | 69 | 1007.0 |
| 20260506051015 | 11 | 217 | 6.4 | 17.7 | 0.00 | 0.18 | 0.00 | 61 | 1006.9 |
| 20260506050515 | 11 | 267 | 8.0 | 17.7 | 0.00 | 0.18 | 0.00 | 56 | 1006.7 |
| 20260506045015 | 11 | 281 | 11.3 | 20.9 | 0.00 | 0.18 | 0.00 | 54 | 1006.5 |
| 20260506044604 | 11 | 269 | 12.9 | 20.9 | 0.00 | 0.18 | 0.00 | 54 | 1006.5 |
| 20260506044016 | 11 | 269 | 8.0 | 16.1 | 0.00 | 0.18 | 0.00 | 55 | 1006.3 |
| 20260506043516 | 11 | 275 | 8.0 | 14.5 | 0.00 | 0.18 | 0.00 | 53 | 1006.2 |
| 20260506043032 | 11 | 276 | 9.7 | 14.5 | 0.00 | 0.18 | 0.00 | 54 | 1006.2 |
| 20260506042517 | 11 | 266 | 9.7 | 16.1 | 0.00 | 0.18 | 0.00 | 55 | 1006.2 |
| 20260506042021 | 11 | 252 | 8.0 | 19.3 | 0.00 | 0.18 | 0.00 | 55 | 1006.1 |
| 20260506041531 | 12 | 271 | 11.3 | 19.3 | 0.00 | 0.18 | 0.00 | 55 | 1006.1 |
| 20260506041021 | 11 | 265 | 11.3 | 20.9 | 0.00 | 0.18 | 0.00 | 55 | 1006.1 |
| 20260506040515 | 11 | 276 | 12.9 | 20.9 | 0.00 | 0.18 | 0.00 | 55 | 1006.0 |
| 20260506040031 | 12 | 258 | 14.5 | 20.9 | 0.00 | 0.18 | 0.00 | 55 | 1005.9 |
| 20260506035515 | 12 | 263 | 12.9 | 20.9 | 0.00 | 0.18 | 0.18 | 55 | 1005.9 |
| 20260506035015 | 12 | 257 | 11.3 | 19.3 | 0.00 | 0.18 | 0.18 | 55 | 1005.8 |
| 20260506034559 | 12 | 254 | 14.5 | 22.5 | 0.00 | 0.18 | 0.18 | 55 | 1005.7 |
| 20260506034016 | 12 | 261 | 12.9 | 22.5 | 0.00 | 0.18 | 0.18 | 55 | 1005.6 |
| 20260506033515 | 12 | 288 | 12.9 | 17.7 | 0.00 | 0.18 | 0.18 | 55 | 1005.6 |
| 20260506033032 | 12 | 277 | 12.9 | 16.1 | 0.00 | 0.18 | 0.18 | 55 | 1005.5 |
| 20260506032517 | 11 | 274 | 6.4 | 14.5 | 0.00 | 0.18 | 0.18 | 60 | 1005.6 |
| 20260506032016 | 11 | 269 | 4.8 | 14.5 | 0.00 | 0.18 | 0.18 | 65 | 1005.4 |
| 20260506031531 | 12 | 251 | 8.0 | 16.1 | 0.00 | 0.18 | 0.18 | 59 | 1005.5 |
| 20260506031015 | 12 | 259 | 6.4 | 20.9 | 0.00 | 0.18 | 0.18 | 61 | 1005.3 |
| 20260506030512 | 12 | 260 | 11.3 | 27.4 | 0.00 | 0.18 | 0.18 | 56 | 1005.3 |
| 20260506030030 | 12 | 277 | 17.7 | 30.6 | 0.00 | 0.18 | 0.18 | 51 | 1005.2 |
| 20260506025516 | 12 | 263 | 17.7 | 30.6 | 0.00 | 0.18 | 0.18 | 52 | 1005.0 |
| 20260506025015 | 12 | 257 | 16.1 | 29.0 | 0.00 | 0.18 | 0.18 | 53 | 1005.1 |
| 20260506024533 | 12 | 264 | 17.7 | 29.0 | 0.00 | 0.18 | 0.18 | 56 | 1005.2 |
| 20260506024015 | 12 | 247 | 11.3 | 25.7 | 0.00 | 0.18 | 0.18 | 64 | 1005.2 |
| 20260506023516 | 12 | 244 | 12.9 | 29.0 | 0.00 | 0.18 | 0.18 | 65 | 1005.4 |
| 20260506023035 | 13 | 263 | 19.3 | 29.0 | 0.00 | 0.18 | 0.18 | 52 | 1005.2 |
| 20260506022513 | 13 | 264 | 16.1 | 25.7 | 0.00 | 0.18 | 0.18 | 53 | 1005.1 |
| 20260506022016 | 13 | 254 | 17.7 | 25.7 | 0.00 | 0.18 | 0.18 | 55 | 1004.9 |
| 20260506021533 | 13 | 259 | 16.1 | 25.7 | 0.00 | 0.18 | 0.18 | 58 | 1004.8 |
| 20260506021016 | 13 | 254 | 14.5 | 24.1 | 0.00 | 0.18 | 0.18 | 58 | 1004.7 |
| 20260506020515 | 13 | 273 | 9.7 | 20.9 | 0.00 | 0.18 | 0.18 | 66 | 1004.7 |
| 20260506020031 | 13 | 260 | 14.5 | 20.9 | 0.00 | 0.18 | 0.18 | 67 | 1004.8 |
| 20260506015519 | 13 | 250 | 14.5 | 19.3 | 0.00 | 0.18 | 0.18 | 70 | 1004.6 |
| 20260506015016 | 13 | 245 | 12.9 | 19.3 | 0.00 | 0.18 | 0.18 | 70 | 1004.6 |
| 20260506014533 | 13 | 244 | 12.9 | 19.3 | 0.00 | 0.18 | 0.18 | 69 | 1004.5 |
| 20260506014015 | 13 | 247 | 11.3 | 19.3 | 0.00 | 0.18 | 0.18 | 69 | 1004.4 |
| 20260506013515 | 13 | 252 | 9.7 | 22.5 | 0.00 | 0.18 | 0.18 | 69 | 1004.3 |
| 20260506013038 | 13 | 259 | 9.7 | 22.5 | 0.00 | 0.18 | 0.18 | 68 | 1004.2 |
| 20260506012516 | 13 | 272 | 12.9 | 27.4 | 0.00 | 0.18 | 0.18 | 66 | 1004.1 |
| 20260506012015 | 14 | 251 | 16.1 | 30.6 | 0.00 | 0.18 | 0.18 | 65 | 1004.0 |
| 20260506011532 | 14 | 252 | 16.1 | 30.6 | 0.00 | 0.18 | 0.18 | 66 | 1003.9 |
| 20260506011018 | 14 | 244 | 20.9 | 30.6 | 0.00 | 0.18 | 0.18 | 64 | 1003.9 |
| 20260506010516 | 14 | 259 | 20.9 | 29.0 | 0.00 | 0.18 | 0.18 | 65 | 1003.7 |
| 20260506010032 | 14 | 253 | 22.5 | 29.0 | 0.00 | 0.18 | 0.18 | 64 | 1003.6 |
| 20260506005515 | 14 | 258 | 19.3 | 25.7 | 0.00 | 0.18 | 0.18 | 65 | 1003.5 |
| 20260506005016 | 14 | 238 | 20.9 | 25.7 | 0.00 | 0.18 | 0.18 | 65 | 1003.4 |
| 20260506004556 | 14 | 249 | 17.7 | 24.1 | 0.00 | 0.18 | 0.18 | 67 | 1003.2 |
| 20260506004016 | 14 | 238 | 16.1 | 24.1 | 0.00 | 0.18 | 0.18 | 68 | 1003.1 |
| 20260506003516 | 14 | 249 | 14.5 | 22.5 | 0.00 | 0.18 | 0.18 | 69 | 1003.1 |
| 20260506003041 | 14 | 240 | 16.1 | 19.3 | 0.00 | 0.18 | 0.18 | 68 | 1002.9 |
| 20260506002515 | 14 | 227 | 14.5 | 20.9 | 0.00 | 0.18 | 0.18 | 67 | 1002.7 |
| 20260506002016 | 14 | 252 | 12.9 | 20.9 | 0.00 | 0.18 | 0.18 | 67 | 1002.4 |
| 20260506001535 | 14 | 251 | 16.1 | 25.7 | 0.00 | 0.18 | 0.18 | 66 | 1002.4 |
| 20260506001016 | 15 | 244 | 17.7 | 27.4 | 0.00 | 0.18 | 0.18 | 65 | 1002.3 |
| 20260506000516 | 15 | 250 | 17.7 | 27.4 | 0.00 | 0.18 | 0.18 | 65 | 1002.3 |
| 20260506000032 | 14 | 257 | 12.9 | 20.9 | 0.00 | 0.18 | 0.18 | 67 | 1002.4 |
| 20260505235516 | 15 | 268 | 11.3 | 22.5 | 0.00 | 0.18 | 0.18 | 67 | 1002.5 |
| 20260505235015 | 15 | 308 | 11.3 | 24.1 | 0.00 | 0.18 | 0.18 | 65 | 1002.5 |
| 20260505234546 | 15 | 290 | 12.9 | 27.4 | 0.00 | 0.18 | 0.18 | 63 | 1002.6 |
| 20260505234022 | 15 | 292 | 16.1 | 27.4 | 0.00 | 0.18 | 0.18 | 62 | 1002.4 |
| 20260505233520 | 15 | 295 | 14.5 | 27.4 | 0.00 | 0.18 | 0.18 | 66 | 1002.4 |
| 20260505233037 | 15 | 277 | 11.3 | 29.0 | 0.00 | 0.18 | 0.18 | 68 | 1002.3 |
| 20260505232516 | 16 | 281 | 17.7 | 29.0 | 0.00 | 0.18 | 0.18 | 66 | 1002.2 |
| 20260505232016 | 16 | 294 | 14.5 | 29.0 | 0.00 | 0.18 | 0.18 | 66 | 1002.1 |
| 20260505231534 | 16 | 282 | 17.7 | 29.0 | 0.00 | 0.18 | 0.18 | 66 | 1002.0 |
| 20260505231016 | 16 | 275 | 14.5 | 29.0 | 0.00 | 0.18 | 0.18 | 66 | 1001.9 |
| 20260505230516 | 16 | 281 | 11.3 | 27.4 | 0.00 | 0.18 | 0.18 | 67 | 1001.7 |
| 20260505230040 | 16 | 306 | 12.9 | 27.4 | 0.00 | 0.18 | 0.18 | 67 | 1001.7 |
| 20260505225521 | 16 | 276 | 8.0 | 25.7 | 0.00 | 0.18 | 0.18 | 67 | 1001.4 |
| 20260505225019 | 16 | 294 | 12.9 | 25.7 | 0.00 | 0.18 | 0.18 | 66 | 1001.3 |
| 20260505224531 | 16 | 298 | 8.0 | 16.1 | 0.00 | 0.18 | 0.18 | 68 | 1001.2 |
| 20260505224016 | 16 | 288 | 9.7 | 19.3 | 0.00 | 0.18 | 0.18 | 68 | 1001.1 |
| 20260505223517 | 16 | 278 | 9.7 | 20.9 | 0.00 | 0.18 | 0.18 | 67 | 1001.1 |
| 20260505223031 | 16 | 294 | 9.7 | 20.9 | 0.00 | 0.18 | 0.18 | 67 | 1001.1 |
| 20260505222520 | 17 | 273 | 12.9 | 25.7 | 0.00 | 0.18 | 0.18 | 67 | 1001.0 |
| 20260505222016 | 17 | 298 | 8.0 | 25.7 | 0.00 | 0.18 | 0.18 | 68 | 1000.9 |
| 20260505221532 | 17 | 289 | 16.1 | 25.7 | 0.00 | 0.18 | 0.18 | 67 | 1000.9 |
| 20260505221016 | 17 | 275 | 11.3 | 17.7 | 0.00 | 0.18 | 0.18 | 67 | 1000.7 |
| 20260505220517 | 17 | 267 | 11.3 | 20.9 | 0.00 | 0.18 | 0.18 | 66 | 1000.5 |
| 20260505220046 | 17 | 311 | 11.3 | 20.9 | 0.00 | 0.18 | 0.18 | 67 | 1000.5 |
| 20260505215516 | 17 | 267 | 11.3 | 25.7 | 0.00 | 0.18 | 0.18 | 68 | 1000.3 |
| 20260505215016 | 17 | 290 | 14.5 | 25.7 | 0.00 | 0.18 | 0.18 | 66 | 1000.2 |
| 20260505214538 | 17 | 276 | 16.1 | 25.7 | 0.00 | 0.18 | 0.18 | 67 | 1000.1 |
| 20260505214015 | 17 | 273 | 12.9 | 25.7 | 0.00 | 0.18 | 0.18 | 68 | 1000.0 |
| 20260505213515 | 17 | 266 | 9.7 | 24.1 | 0.00 | 0.18 | 0.18 | 69 | 999.9 |
| 20260505213032 | 17 | 284 | 16.1 | 29.0 | 0.00 | 0.18 | 0.18 | 68 | 999.7 |
| 20260505212517 | 18 | 296 | 16.1 | 29.0 | 0.00 | 0.18 | 0.18 | 68 | 999.7 |
| 20260505212018 | 18 | 282 | 16.1 | 29.0 | 0.00 | 0.18 | 0.18 | 69 | 999.5 |
| 20260505211535 | 18 | 294 | 16.1 | 25.7 | 0.00 | 0.18 | 0.18 | 69 | 999.5 |
| 20260505211017 | 17 | 283 | 11.3 | 24.1 | 0.00 | 0.18 | 0.18 | 72 | 999.4 |
| 20260505210516 | 17 | 290 | 14.5 | 24.1 | 0.00 | 0.18 | 0.18 | 72 | 999.4 |
| 20260505210031 | 17 | 281 | 16.1 | 29.0 | 0.00 | 0.18 | 0.18 | 73 | 999.3 |
| 20260505205516 | 17 | 290 | 16.1 | 29.0 | 0.00 | 0.18 | 0.18 | 73 | 999.4 |
| 20260505205016 | 17 | 287 | 11.3 | 24.1 | 0.00 | 0.18 | 0.18 | 74 | 999.2 |
| 20260505204535 | 17 | 303 | 14.5 | 25.7 | 0.00 | 0.18 | 0.18 | 74 | 999.2 |
| 20260505204016 | 17 | 316 | 12.9 | 29.0 | 0.00 | 0.18 | 0.18 | 74 | 999.3 |
| 20260505203516 | 17 | 298 | 16.1 | 29.0 | 0.00 | 0.18 | 0.18 | 74 | 999.1 |
| 20260505203031 | 17 | 302 | 17.7 | 29.0 | 0.00 | 0.18 | 0.18 | 73 | 999.0 |
| 20260505202517 | 17 | 304 | 16.1 | 33.8 | 0.00 | 0.18 | 0.18 | 73 | 998.8 |
| 20260505202016 | 18 | 300 | 17.7 | 33.8 | 0.00 | 0.18 | 0.18 | 72 | 998.7 |
| 20260505201530 | 18 | 272 | 16.1 | 30.6 | 0.00 | 0.18 | 0.18 | 71 | 998.7 |
| 20260505201017 | 18 | 277 | 16.1 | 33.8 | 0.00 | 0.18 | 0.18 | 70 | 998.5 |
| 20260505200518 | 18 | 303 | 16.1 | 37.0 | 0.00 | 0.18 | 0.18 | 70 | 998.4 |
| 20260505200030 | 18 | 315 | 20.9 | 37.0 | 0.00 | 0.18 | 0.18 | 68 | 998.4 |
| 20260505195516 | 19 | 294 | 19.3 | 38.6 | 0.00 | 0.18 | 0.18 | 65 | 998.2 |
| 20260505195017 | 20 | 296 | 20.9 | 40.2 | 0.00 | 0.18 | 0.18 | 62 | 998.1 |
| 20260505194536 | 20 | 244 | 29.0 | 40.2 | 0.00 | 0.18 | 0.18 | 63 | 997.5 |
| 20260505194016 | 20 | 238 | 29.0 | 46.7 | 0.00 | 0.18 | 0.18 | 62 | 997.3 |
| 20260505193516 | 20 | 239 | 29.0 | 46.7 | 0.00 | 0.18 | 0.18 | 63 | 997.3 |
| 20260505193041 | 21 | 240 | 33.8 | 46.7 | 0.00 | 0.18 | 0.18 | 62 | 997.4 |
| 20260505192517 | 21 | 240 | 32.2 | 48.3 | 0.00 | 0.18 | 0.18 | 63 | 997.2 |
| 20260505192017 | 21 | 236 | 33.8 | 48.3 | 0.00 | 0.18 | 0.18 | 61 | 997.1 |
| 20260505191544 | 21 | 235 | 35.4 | 45.1 | 0.00 | 0.18 | 0.18 | 62 | 997.1 |
| 20260505191022 | 21 | 228 | 30.6 | 48.3 | 0.00 | 0.18 | 0.18 | 63 | 997.0 |
| 20260505190518 | 21 | 232 | 33.8 | 48.3 | 0.00 | 0.18 | 0.18 | 62 | 996.8 |
| 20260505190030 | 21 | 242 | 33.8 | 48.3 | 0.00 | 0.18 | 0.18 | 64 | 996.8 |
| 20260505185516 | 21 | 248 | 35.4 | 51.5 | 0.00 | 0.18 | 0.18 | 61 | 996.8 |
| 20260505185017 | 21 | 224 | 35.4 | 51.5 | 0.00 | 0.18 | 0.18 | 62 | 996.8 |
| 20260505184533 | 21 | 227 | 32.2 | 45.1 | 0.00 | 0.18 | 0.18 | 64 | 996.9 |
| 20260505184017 | 21 | 237 | 29.0 | 43.5 | 0.00 | 0.18 | 0.18 | 67 | 997.0 |
| 20260505183516 | 20 | 240 | 30.6 | 48.3 | 0.00 | 0.18 | 0.18 | 70 | 997.0 |
| 20260505183032 | 20 | 227 | 33.8 | 48.3 | 0.00 | 0.18 | 0.18 | 71 | 997.0 |
| 20260505182516 | 20 | 225 | 35.4 | 46.7 | 0.00 | 0.18 | 0.18 | 72 | 997.2 |
| 20260505182018 | 20 | 235 | 33.8 | 51.5 | 0.00 | 0.18 | 0.18 | 68 | 997.3 |
| 20260505181529 | 20 | 250 | 40.2 | 53.1 | 0.00 | 0.18 | 0.18 | 63 | 997.4 |
| 20260505181017 | 21 | 237 | 40.2 | 53.1 | 0.00 | 0.18 | 0.18 | 62 | 997.2 |
| 20260505180516 | 21 | 225 | 37.0 | 48.3 | 0.00 | 0.18 | 0.18 | 62 | 997.2 |
| 20260505180044 | 21 | 241 | 40.2 | 49.9 | 0.00 | 0.18 | 0.18 | 61 | 997.2 |
| 20260505175516 | 21 | 223 | 38.6 | 49.9 | 0.00 | 0.18 | 0.18 | 63 | 997.3 |
| 20260505175016 | 21 | 232 | 27.4 | 38.6 | 0.00 | 0.18 | 0.18 | 70 | 997.5 |
| 20260505174539 | 21 | 238 | 22.5 | 35.4 | 0.00 | 0.18 | 0.18 | 68 | 997.3 |
| 20260505174017 | 20 | 240 | 20.9 | 30.6 | 0.00 | 0.18 | 0.18 | 73 | 997.5 |
| 20260505173517 | 20 | 215 | 20.9 | 30.6 | 0.00 | 0.18 | 0.18 | 77 | 997.6 |
| 20260505173030 | 20 | 229 | 24.1 | 30.6 | 0.00 | 0.18 | 0.18 | 75 | 997.7 |
| 20260505172516 | 20 | 227 | 19.3 | 30.6 | 0.00 | 0.18 | 0.18 | 80 | 997.6 |
| 20260505172016 | 19 | 209 | 17.7 | 24.1 | 0.00 | 0.18 | 0.18 | 81 | 997.7 |
| 20260505171535 | 18 | 211 | 14.5 | 24.1 | 0.00 | 0.18 | 0.18 | 83 | 997.7 |
| 20260505171017 | 18 | 214 | 16.1 | 20.9 | 0.00 | 0.18 | 0.18 | 85 | 997.8 |
| 20260505170517 | 18 | 241 | 14.5 | 20.9 | 0.00 | 0.18 | 0.18 | 83 | 997.9 |
| 20260505170035 | 17 | 218 | 11.3 | 16.1 | 0.00 | 0.18 | 0.18 | 87 | 998.0 |
| 20260505165518 | 17 | 219 | 8.0 | 14.5 | 0.00 | 0.18 | 0.18 | 89 | 998.0 |
| 20260505165016 | 17 | 207 | 8.0 | 14.5 | 0.00 | 0.18 | 0.18 | 89 | 998.0 |
| 20260505164532 | 16 | 173 | 6.4 | 9.7 | 0.00 | 0.18 | 0.18 | 89 | 998.0 |
| 20260505164016 | 16 | 199 | 6.4 | 9.7 | 0.00 | 0.18 | 0.18 | 89 | 998.2 |
| 20260505163515 | 16 | 188 | 6.4 | 11.3 | 0.00 | 0.18 | 0.18 | 89 | 998.4 |
| 20260505163038 | 16 | 202 | 6.4 | 12.9 | 0.03 | 0.18 | 0.18 | 90 | 998.3 |
| 20260505162516 | 16 | 213 | 6.4 | 12.9 | 0.03 | 0.18 | 0.18 | 90 | 998.5 |
| 20260505162017 | 15 | 216 | 8.0 | 12.9 | 0.03 | 0.18 | 0.18 | 91 | 998.7 |
| 20260505161532 | 15 | 201 | 8.0 | 11.3 | 0.03 | 0.18 | 0.18 | 91 | 998.8 |
| 20260505161017 | 15 | 203 | 8.0 | 11.3 | 0.03 | 0.18 | 0.18 | 92 | 998.8 |
| 20260505160517 | 15 | 232 | 6.4 | 11.3 | 0.03 | 0.18 | 0.18 | 92 | 999.0 |
| 20260505153046 | 14 | 225 | 4.8 | 11.3 | 0.15 | 0.15 | 0.15 | 92 | 999.3 |
| 20260505152516 | 14 | 228 | 8.0 | 11.3 | 0.15 | 0.15 | 0.15 | 91 | 999.4 |
| 20260505152017 | 14 | 241 | 6.4 | 14.5 | 0.15 | 0.15 | 0.15 | 91 | 999.3 |
| 20260505151539 | 14 | 226 | 9.7 | 17.7 | 0.15 | 0.15 | 0.15 | 90 | 999.4 |
| 20260505151017 | 14 | 229 | 11.3 | 19.3 | 0.15 | 0.15 | 0.15 | 90 | 999.3 |
| 20260505150517 | 14 | 211 | 14.5 | 19.3 | 0.13 | 0.13 | 0.13 | 89 | 999.4 |